AVR4823 SKSM-SKBO

Flight info

Callsign AVR4823
Flight time 1h 0m
Altitude 36000
Route SUPLI1A LOKOV UG444 EJA UQ119 ILSEV ILSEV5E
Aircraft A320/M-SDE3FGHIRWY/LB1

Departure

Time 2026-05-05 02:08
Airport Simón Bolívar International Airport (SKSM)

Arrival

Time 2026-05-05 03:09
Airport El Dorado International Airport (SKBO)
Time Latitude Longitude Altitude Speed Heading
2026-05-05 02:00 11.11841 -74.23164 38 ft 0 kts 179°
2026-05-05 02:04 11.11827 -74.23164 38 ft 5 kts 179°
2026-05-05 02:04 11.11782 -74.23163 38 ft 9 kts 179°
2026-05-05 02:04 11.11746 -74.23141 38 ft 3 kts 97°
2026-05-05 02:04 11.11746 -74.23139 38 ft 0 kts 91°
2026-05-05 02:06 11.11746 -74.23134 37 ft 5 kts 91°
2026-05-05 02:06 11.11707 -74.23056 33 ft 17 kts 172°
2026-05-05 02:06 11.11572 -74.23055 33 ft 20 kts 179°
2026-05-05 02:07 11.11428 -74.23050 34 ft 23 kts 178°
2026-05-05 02:07 11.11274 -74.23039 34 ft 17 kts 152°
2026-05-05 02:07 11.11216 -74.23038 34 ft 5 kts 257°
2026-05-05 02:07 11.11236 -74.23047 34 ft 6 kts 358°
2026-05-05 02:08 11.11508 -74.23053 32 ft 81 kts 358°
2026-05-05 02:08 11.12005 -74.23063 36 ft 129 kts 359°
2026-05-05 02:08 11.12998 -74.23083 423 ft 147 kts 359°
2026-05-05 02:08 11.13978 -74.23355 1049 ft 150 kts 326°
2026-05-05 02:09 11.14661 -74.24189 1455 ft 165 kts 292°
2026-05-05 02:09 11.14700 -74.25442 1680 ft 191 kts 251°
2026-05-05 02:09 11.13874 -74.26532 2080 ft 207 kts 216°
2026-05-05 02:09 11.12452 -74.27012 2341 ft 231 kts 179°
2026-05-05 02:10 11.10764 -74.26843 2719 ft 256 kts 173°
2026-05-05 02:10 11.08939 -74.26607 3333 ft 270 kts 172°
2026-05-05 02:10 11.07061 -74.26360 4196 ft 274 kts 172°
2026-05-05 02:10 11.05163 -74.26111 5093 ft 276 kts 172°
2026-05-05 02:11 11.03252 -74.25865 5995 ft 278 kts 172°
2026-05-05 02:11 11.01327 -74.25621 6847 ft 280 kts 172°
2026-05-05 02:11 10.99377 -74.25374 7668 ft 283 kts 172°
2026-05-05 02:11 10.97408 -74.25123 8472 ft 287 kts 172°
2026-05-05 02:12 10.95416 -74.24870 9273 ft 290 kts 172°
2026-05-05 02:12 10.91306 -74.24352 10372 ft 314 kts 172°
2026-05-05 02:12 10.89055 -74.24068 10622 ft 335 kts 172°
2026-05-05 02:13 10.86718 -74.23775 11208 ft 341 kts 171°
2026-05-05 02:13 10.84357 -74.23481 11908 ft 343 kts 170°
2026-05-05 02:13 10.81972 -74.23184 12582 ft 347 kts 170°
2026-05-05 02:13 10.79597 -74.22888 13230 ft 350 kts 170°
2026-05-05 02:14 10.77166 -74.22583 13864 ft 354 kts 169°
2026-05-05 02:14 10.74711 -74.22274 14431 ft 357 kts 170°
2026-05-05 02:14 10.72225 -74.21962 14980 ft 361 kts 170°
2026-05-05 02:14 10.69714 -74.21649 15522 ft 365 kts 170°
2026-05-05 02:15 10.67174 -74.21331 16087 ft 369 kts 170°
2026-05-05 02:15 10.64614 -74.21010 16619 ft 373 kts 171°
2026-05-05 02:15 10.62020 -74.20686 17144 ft 377 kts 171°
2026-05-05 02:15 10.59395 -74.20359 17675 ft 381 kts 171°
2026-05-05 02:16 10.56750 -74.20028 18196 ft 385 kts 171°
2026-05-05 02:16 10.54075 -74.19694 18651 ft 389 kts 171°
2026-05-05 02:16 10.51371 -74.19355 19107 ft 393 kts 171°
2026-05-05 02:16 10.48649 -74.19015 19564 ft 397 kts 171°
2026-05-05 02:17 10.45896 -74.18673 20011 ft 400 kts 172°
2026-05-05 02:17 10.43118 -74.18328 20462 ft 404 kts 172°
2026-05-05 02:17 10.40312 -74.17976 20921 ft 408 kts 172°
2026-05-05 02:17 10.37476 -74.17621 21376 ft 412 kts 172°
2026-05-05 02:18 10.34620 -74.17264 21828 ft 416 kts 172°
2026-05-05 02:18 10.31735 -74.16904 22275 ft 419 kts 172°
2026-05-05 02:18 10.28861 -74.16545 22712 ft 423 kts 172°
2026-05-05 02:18 10.25889 -74.16171 23145 ft 427 kts 172°
2026-05-05 02:19 10.22925 -74.15799 23560 ft 431 kts 172°
2026-05-05 02:19 10.19938 -74.15425 23914 ft 434 kts 172°
2026-05-05 02:19 10.16939 -74.15051 24283 ft 436 kts 173°
2026-05-05 02:19 10.13966 -74.14679 24684 ft 437 kts 173°
2026-05-05 02:20 10.10943 -74.14302 25063 ft 439 kts 173°
2026-05-05 02:20 10.07905 -74.13921 25423 ft 440 kts 173°
2026-05-05 02:20 10.04860 -74.13540 25778 ft 442 kts 173°
2026-05-05 02:20 10.01794 -74.13160 26124 ft 444 kts 173°
2026-05-05 02:21 9.98723 -74.12778 26458 ft 446 kts 173°
2026-05-05 02:21 9.95633 -74.12393 26786 ft 448 kts 173°
2026-05-05 02:21 9.92531 -74.12007 27110 ft 450 kts 173°
2026-05-05 02:21 9.89419 -74.11618 27431 ft 452 kts 173°
2026-05-05 02:22 9.86286 -74.11228 27738 ft 454 kts 173°
2026-05-05 02:22 9.83148 -74.10837 28047 ft 456 kts 173°
2026-05-05 02:22 9.79993 -74.10443 28348 ft 458 kts 173°
2026-05-05 02:22 9.76823 -74.10047 28632 ft 460 kts 173°
2026-05-05 02:23 9.73637 -74.09650 28911 ft 462 kts 173°
2026-05-05 02:23 9.70437 -74.09251 29182 ft 464 kts 173°
2026-05-05 02:23 9.67226 -74.08850 29463 ft 466 kts 173°
2026-05-05 02:23 9.64004 -74.08448 29733 ft 468 kts 173°
2026-05-05 02:24 9.60765 -74.08045 29988 ft 470 kts 173°
2026-05-05 02:24 9.57513 -74.07641 30211 ft 471 kts 173°
2026-05-05 02:24 9.54255 -74.07237 30434 ft 472 kts 173°
2026-05-05 02:24 9.50992 -74.06831 30654 ft 474 kts 173°
2026-05-05 02:25 9.47710 -74.06425 30855 ft 475 kts 173°
2026-05-05 02:25 9.44428 -74.06020 31066 ft 476 kts 173°
2026-05-05 02:25 9.41140 -74.05612 31299 ft 476 kts 173°
2026-05-05 02:25 9.37861 -74.05203 31592 ft 474 kts 173°
2026-05-05 02:26 9.34591 -74.04796 31894 ft 473 kts 173°
2026-05-05 02:26 9.31373 -74.04393 32197 ft 471 kts 173°
2026-05-05 02:26 9.28119 -74.03989 32509 ft 470 kts 173°
2026-05-05 02:26 9.24883 -74.03587 32815 ft 468 kts 173°
2026-05-05 02:27 9.21652 -74.03186 33133 ft 467 kts 173°
2026-05-05 02:27 9.18433 -74.02785 33455 ft 465 kts 173°
2026-05-05 02:27 9.15224 -74.02384 33787 ft 464 kts 173°
2026-05-05 02:27 9.12026 -74.01984 34089 ft 462 kts 173°
2026-05-05 02:28 9.08838 -74.01586 34369 ft 461 kts 173°
2026-05-05 02:28 9.05658 -74.01192 34641 ft 460 kts 173°
2026-05-05 02:28 9.02486 -74.00800 34856 ft 459 kts 173°
2026-05-05 02:29 8.96180 -74.00026 34921 ft 454 kts 173°
2026-05-05 02:29 8.89918 -73.99251 34920 ft 453 kts 173°
2026-05-05 02:30 8.83657 -73.98472 34923 ft 453 kts 173°
2026-05-05 02:30 8.77404 -73.97696 34925 ft 453 kts 173°
2026-05-05 02:31 8.71191 -73.96928 34926 ft 453 kts 173°
2026-05-05 02:31 8.64938 -73.96153 34924 ft 453 kts 173°
2026-05-05 02:32 8.58687 -73.95373 34939 ft 453 kts 173°
2026-05-05 02:32 8.52426 -73.94603 34944 ft 453 kts 173°
2026-05-05 02:33 8.46167 -73.93826 34944 ft 454 kts 173°
2026-05-05 02:33 8.39898 -73.93050 34952 ft 454 kts 173°
2026-05-05 02:34 8.33623 -73.92275 34954 ft 454 kts 173°
2026-05-05 02:34 8.27341 -73.91501 34959 ft 454 kts 173°
2026-05-05 02:35 8.21065 -73.90726 34959 ft 454 kts 173°
2026-05-05 02:35 8.14825 -73.89957 34961 ft 454 kts 173°
2026-05-05 02:36 8.08543 -73.89182 34963 ft 454 kts 173°
2026-05-05 02:36 8.02263 -73.88435 34964 ft 454 kts 174°
2026-05-05 02:37 7.95958 -73.87907 34960 ft 455 kts 175°
2026-05-05 02:37 7.89648 -73.87468 34957 ft 454 kts 175°
2026-05-05 02:38 7.83349 -73.87003 34950 ft 454 kts 175°
2026-05-05 02:38 7.77043 -73.86690 34950 ft 454 kts 184°
2026-05-05 02:39 7.70735 -73.87142 34948 ft 454 kts 184°
2026-05-05 02:39 7.64428 -73.87607 34948 ft 455 kts 184°
2026-05-05 02:40 7.58115 -73.88075 34951 ft 454 kts 184°
2026-05-05 02:40 7.51821 -73.88548 34952 ft 454 kts 184°
2026-05-05 02:41 7.45525 -73.89016 34951 ft 453 kts 184°
2026-05-05 02:41 7.39272 -73.89476 34947 ft 453 kts 184°
2026-05-05 02:42 7.32985 -73.89942 34946 ft 453 kts 184°
2026-05-05 02:42 7.26702 -73.90415 34945 ft 452 kts 184°
2026-05-05 02:43 7.20431 -73.90886 34942 ft 452 kts 183°
2026-05-05 02:43 7.14166 -73.91352 34940 ft 451 kts 183°
2026-05-05 02:44 7.07899 -73.91815 34944 ft 452 kts 183°
2026-05-05 02:44 7.01631 -73.92282 34904 ft 452 kts 183°
2026-05-05 02:45 6.95365 -73.92738 34904 ft 451 kts 183°
2026-05-05 02:45 6.89098 -73.93187 34912 ft 452 kts 183°
2026-05-05 02:46 6.82830 -73.93635 34929 ft 452 kts 183°
2026-05-05 02:46 6.76564 -73.94090 34941 ft 452 kts 183°
2026-05-05 02:47 6.70332 -73.94543 34970 ft 452 kts 183°
2026-05-05 02:47 6.64053 -73.94993 34974 ft 452 kts 183°
2026-05-05 02:48 6.57776 -73.95442 35001 ft 452 kts 183°
2026-05-05 02:48 6.51501 -73.95896 34990 ft 452 kts 183°
2026-05-05 02:49 6.45225 -73.96349 34983 ft 452 kts 183°
2026-05-05 02:49 6.38947 -73.96806 35012 ft 453 kts 183°
2026-05-05 02:50 6.32659 -73.97260 35012 ft 453 kts 183°
2026-05-05 02:50 6.26367 -73.97718 35051 ft 454 kts 183°
2026-05-05 02:51 6.20062 -73.98167 35056 ft 454 kts 183°
2026-05-05 02:51 6.13761 -73.98617 35093 ft 454 kts 183°
2026-05-05 02:52 6.07461 -73.99073 35092 ft 454 kts 183°
2026-05-05 02:52 6.01167 -73.99588 35089 ft 454 kts 188°
2026-05-05 02:53 5.94947 -74.00758 35127 ft 454 kts 190°
2026-05-05 02:53 5.91883 -74.01338 34944 ft 454 kts 190°
2026-05-05 02:53 5.88751 -74.01930 33871 ft 463 kts 190°
2026-05-05 02:53 5.85551 -74.02539 32630 ft 471 kts 190°
2026-05-05 02:54 5.82306 -74.03155 31536 ft 477 kts 189°
2026-05-05 02:54 5.79039 -74.03775 30481 ft 480 kts 189°
2026-05-05 02:54 5.75739 -74.04400 29189 ft 485 kts 189°
2026-05-05 02:54 5.73493 -74.04825 28296 ft 487 kts 189°
2026-05-05 02:55 5.70199 -74.05451 27089 ft 490 kts 189°
2026-05-05 02:55 5.66803 -74.06097 26074 ft 488 kts 189°
2026-05-05 02:55 5.63480 -74.06730 25218 ft 484 kts 189°
2026-05-05 02:55 5.60227 -74.07346 24357 ft 481 kts 189°
2026-05-05 02:56 5.56906 -74.07975 23389 ft 479 kts 189°
2026-05-05 02:56 5.53648 -74.08594 22689 ft 472 kts 189°
2026-05-05 02:56 5.50519 -74.09189 22537 ft 454 kts 189°
2026-05-05 02:56 5.47475 -74.09766 22410 ft 437 kts 189°
2026-05-05 02:57 5.44565 -74.10434 22280 ft 423 kts 197°
2026-05-05 02:57 5.41924 -74.11643 22191 ft 412 kts 210°
2026-05-05 02:57 5.39665 -74.13348 21918 ft 404 kts 223°
2026-05-05 02:57 5.37759 -74.15413 21449 ft 402 kts 228°
2026-05-05 02:58 5.35914 -74.17511 20982 ft 400 kts 228°
2026-05-05 02:58 5.34084 -74.19595 20527 ft 397 kts 228°
2026-05-05 02:58 5.32262 -74.21667 20040 ft 394 kts 228°
2026-05-05 02:58 5.30453 -74.23721 19604 ft 391 kts 227°
2026-05-05 02:59 5.28655 -74.25755 19183 ft 389 kts 227°
2026-05-05 02:59 5.26831 -74.27737 18837 ft 384 kts 222°
2026-05-05 02:59 5.24626 -74.29276 17906 ft 392 kts 203°
2026-05-05 02:59 5.22054 -74.30265 17057 ft 398 kts 198°
2026-05-05 03:00 5.19447 -74.31211 16493 ft 397 kts 198°
2026-05-05 03:00 5.16858 -74.32150 16014 ft 394 kts 198°
2026-05-05 03:00 5.14286 -74.33088 15546 ft 390 kts 198°
2026-05-05 03:00 5.11747 -74.34019 15095 ft 387 kts 198°
2026-05-05 03:01 5.09233 -74.34945 14623 ft 383 kts 198°
2026-05-05 03:01 5.06775 -74.35854 14093 ft 380 kts 198°
2026-05-05 03:01 5.04311 -74.36765 13803 ft 371 kts 198°
2026-05-05 03:01 5.01934 -74.37642 13677 ft 357 kts 198°
2026-05-05 03:02 4.99642 -74.38488 13533 ft 345 kts 198°
2026-05-05 03:02 4.97421 -74.39306 13440 ft 334 kts 198°
2026-05-05 03:02 4.95276 -74.40095 13313 ft 323 kts 198°
2026-05-05 03:02 4.93166 -74.40688 13178 ft 305 kts 183°
2026-05-05 03:03 4.91147 -74.40586 13080 ft 280 kts 163°
2026-05-05 03:03 4.89394 -74.39889 12969 ft 264 kts 146°
2026-05-05 03:03 4.87976 -74.38802 12872 ft 250 kts 138°
2026-05-05 03:03 4.86770 -74.37631 12886 ft 234 kts 129°
2026-05-05 03:04 4.85760 -74.36369 12812 ft 231 kts 126°
2026-05-05 03:04 4.84795 -74.35084 12605 ft 230 kts 125°
2026-05-05 03:04 4.83835 -74.33809 12334 ft 228 kts 126°
2026-05-05 03:04 4.82881 -74.32547 12055 ft 226 kts 126°
2026-05-05 03:05 4.81930 -74.31290 11775 ft 226 kts 126°
2026-05-05 03:05 4.80980 -74.30036 11496 ft 225 kts 126°
2026-05-05 03:05 4.80048 -74.28804 11231 ft 224 kts 126°
2026-05-05 03:05 4.79125 -74.27584 10970 ft 213 kts 126°
2026-05-05 03:06 4.78263 -74.26446 10716 ft 195 kts 126°
2026-05-05 03:06 4.77489 -74.25425 10503 ft 174 kts 126°
2026-05-05 03:06 4.76790 -74.24501 10291 ft 160 kts 126°
2026-05-05 03:06 4.76125 -74.23623 10111 ft 157 kts 126°
2026-05-05 03:07 4.75471 -74.22759 9909 ft 154 kts 127°
2026-05-05 03:07 4.74821 -74.21900 9700 ft 155 kts 127°
2026-05-05 03:07 4.74173 -74.21043 9485 ft 153 kts 126°
2026-05-05 03:07 4.73531 -74.20195 9255 ft 153 kts 126°
2026-05-05 03:08 4.72885 -74.19342 9023 ft 153 kts 127°
2026-05-05 03:08 4.72239 -74.18493 8801 ft 152 kts 128°
2026-05-05 03:08 4.71603 -74.17646 8572 ft 151 kts 129°
2026-05-05 03:08 4.70965 -74.16797 8397 ft 153 kts 129°
2026-05-05 03:09 4.70394 -74.16044 8374 ft 112 kts 127°
2026-05-05 03:09 4.70024 -74.15557 8373 ft 63 kts 126°
2026-05-05 03:09 4.69808 -74.15270 8374 ft 41 kts 127°
2026-05-05 03:09 4.69732 -74.15095 8373 ft 18 kts 98°
2026-05-05 03:10 4.69718 -74.15003 8373 ft 10 kts 98°
2026-05-05 03:10 4.69712 -74.14959 8373 ft 0 kts 98°
2026-05-05 03:11 4.69711 -74.14953 8373 ft 2 kts 98°
2026-05-05 03:11 4.69707 -74.14923 8373 ft 9 kts 98°
2026-05-05 03:11 4.69737 -74.14831 8373 ft 19 kts 48°
2026-05-05 03:11 4.69846 -74.14750 8373 ft 15 kts 37°
2026-05-05 03:12 4.69832 -74.14689 8373 ft 9 kts 156°
2026-05-05 03:12 4.69795 -74.14709 8373 ft 3 kts 218°
2026-05-05 03:12 4.69787 -74.14715 8373 ft 0 kts 217°